Location: Windsor
(43.2292°N, 89.3015°W)
Time: 16:09:24
(UTC+00:00)

DIWATA 2B (PO-101) - Pass Details

Date: 28 June 2022
Orbit: 583 x 599 km, 98.0° (Epoch: 18 August)

Event Time Altitude Azimuth Distance (km) Brightness Sun altitude
Exits shadow 09:16:02 10° 254° (WSW) 1,964 ? -9.8°
Reaches altitude 10° 09:16:17 10° 257° (WSW) 1,937 ? -9.7°
Maximum altitude 09:17:17 11° 271° (W) 1,893 ? -9.6°
Drops below altitude 10° 09:18:18 10° 285° (WNW) 1,942 ? -9.5°
Sets 09:22:20 0° 323° (NW) 2,855 ? -8.9°
